Location: Czu?�w
(50.1404°N, 18.9919°E)
Time: 03:29:46
(UTC+00:00)

H-2A R/B - Pass Details

Date: 27 October 2020
Orbit: 528 x 652 km, 98.3° (Epoch: 24 November)

Event Time Altitude Azimuth Distance (km) Brightness Sun altitude
Rises 16:05:41 0° 184° (S) 2,924 6.2 -6.5°
Reaches altitude 10° 16:07:57 10° 191° (SSW) 2,033 5.5 -6.9°
Maximum altitude 16:12:10 41° 262° (W) 954 4.3 -7.5°
Drops below altitude 10° 16:16:27 10° 332° (NNW) 2,073 5.5 -8.2°
Sets 16:18:48 0° 340° (NNW) 2,989 6.2 -8.6°
